Home > Weather > Jaén > Past weeks

Flag for Spain Past Weather in Jaén, Spain — Yesterday and Last 2 Weeks

Now
73 °F

Clear.


Feels Like: 77 °F
Forecast: 61 / 98 °F
Wind: 2 mph from North

Location: Granada / Aeropuerto

Current Time: Jul 31, 2016 at 2:34:02 AM

Latest Report: Jul 31, 2016 at 2:00 AM


Visibility: 10 mi

Pressure: 30.12 "Hg (28.22 "Hg at 565m altitude)

Humidity: 47%

Dew Point: 52 °F

Location of JaénLocation

Past Weather in Jaén — Graph

°F

Jaén Temperature Yesterday

Maximum temperature yesterday: 99 °F (at 4:30 PM)
Minimum temperature yesterday: 68 °F (at 6:30 AM)
Average temperature yesterday: 83 °F

High & Low Weather Summary for the Past Weeks

 TemperatureHumidityPressure
High104 °F (Jul 20, 6:00 PM)83% (Jul 24, 4:30 AM)30.18 "Hg (Jul 24, 4:30 AM)
Low61 °F (Jul 23, 7:00 AM)11% (Jul 21, 4:00 PM)29.95 "Hg (Jul 22, 5:30 PM)
Average83 °F39%30.07 "Hg
* Reported Jul 16 1:00 AM — Jul 31 1:30 AM, Jaén, Weather by CustomWeather, © 2016

Note: Actual official high and low records may vary slightly from our data, if they occured in-between our weather recording intervals... More about our weather records

Advertising

Jaén Weather History for the Previous 24 Hours

Scroll right to see more
 ConditionsComfort  
Time TempWeatherWind HumidityBarometerVisibility
1:30 AM
Sun, Jul 31
75 °FClear.No wind47%30.12 "Hg10 mi
1:00 AM77 °FClear.No wind39%30.12 "Hg10 mi
12:30 AM77 °FPleasantly warm.1 mph36%30.12 "HgN/A
12:00 AM79 °FPleasantly warm.6 mph34%30.12 "HgN/A
11:30 PM
Sat, Jul 30
81 °FClear.5 mph32%30.12 "Hg10 mi
11:00 PM82 °FClear.7 mph28%30.12 "Hg10 mi
10:30 PM82 °FClear.5 mph30%30.12 "Hg10 mi
10:00 PM86 °FSunny.3 mph25%30.09 "Hg10 mi
9:30 PM88 °FSunny.8 mph24%30.09 "Hg10 mi
9:00 PM90 °FSunny.9 mph26%30.07 "Hg10 mi
8:30 PM91 °FPassing clouds.9 mph24%30.07 "HgN/A
8:00 PM91 °FSunny.12 mph26%30.07 "Hg10 mi
7:30 PM93 °FSunny.13 mph26%30.04 "Hg10 mi
7:00 PM95 °FPassing clouds.15 mph23%30.04 "HgN/A
6:30 PM97 °FPassing clouds.13 mph22%30.04 "HgN/A
6:00 PM97 °FPassing clouds.13 mph20%30.04 "HgN/A
5:30 PM99 °FPassing clouds.12 mph21%30.04 "HgN/A
5:00 PM99 °FPassing clouds.10 mph24%30.04 "HgN/A
4:30 PM99 °FPassing clouds.13 mph22%30.04 "HgN/A
4:00 PM97 °FScattered clouds.12 mph25%30.04 "HgN/A
3:30 PM97 °FScattered clouds.14 mph27%30.07 "HgN/A
3:00 PM95 °FScattered clouds.13 mph28%30.07 "HgN/A
2:30 PM95 °FScattered clouds.13 mph25%30.07 "HgN/A
2:00 PM97 °FPassing clouds.16 mph19%30.07 "HgN/A
1:30 PM95 °FPassing clouds.8 mph26%30.07 "HgN/A
1:00 PM91 °FSunny.3 mph34%30.07 "Hg10 mi
12:30 PM90 °FSunny.2 mph36%30.07 "Hg10 mi
12:00 PM86 °FSunny.2 mph38%30.09 "Hg10 mi
11:30 AM84 °FSunny.1 mph40%30.09 "Hg10 mi
11:00 AM81 °FSunny.2 mph48%30.09 "Hg10 mi
10:30 AM81 °FSunny.1 mph45%30.09 "Hg10 mi
10:00 AM77 °FSunny.1 mph54%30.09 "Hg10 mi
9:30 AM75 °FSunny.No wind57%30.09 "Hg10 mi
9:00 AM73 °FSunny.No wind57%30.09 "Hg10 mi
8:30 AM72 °FSunny.No wind61%30.07 "Hg10 mi
8:00 AM68 °FClear.No wind64%30.07 "Hg10 mi
7:30 AM68 °FClear.No wind64%30.07 "Hg10 mi
7:00 AM68 °FClear.1 mph69%30.07 "Hg10 mi
6:30 AM68 °FClear.1 mph64%30.07 "Hg10 mi
6:00 AM70 °FClear.No wind60%30.07 "Hg10 mi
5:30 AM70 °FMild.No wind60%30.07 "HgN/A
5:00 AM70 °FMild.1 mph60%30.07 "HgN/A
4:30 AM72 °FMild.No wind57%30.07 "HgN/A
4:00 AM72 °FMild.1 mph57%30.07 "HgN/A
3:30 AM73 °FMild.No wind50%30.07 "HgN/A
3:00 AM75 °FMild.No wind47%30.07 "HgN/A
2:30 AM77 °FWarm.2 mph47%30.07 "HgN/A
2:00 AM75 °FMild.2 mph50%30.07 "HgN/A
Weather by CustomWeather, © 2016

See weather overviewHow to use our weather pages